Weather History for South Haven, MI

Change the Weather History Date:

Saturday, December 21, 2013

  Actual Average (KBIV) Record (KBIV)
Temperature  
Mean Temperature 33 °F 30 °F  
Max Temperature 34 °F 35 °F 61 °F (1967)
Min Temperature 32 °F 25 °F 1 °F (1989)
Degree Days  
Heating Degree Days 32 35  
Month to date heating degree days 681  
Since 1 July heating degree days 1904  
Cooling Degree Days 0 0  
Month to date cooling degree days 0  
Year to date cooling degree days 693  
Moisture  
Dew Point 32 °F    
Average Humidity 98    
Maximum Humidity 100    
Minimum Humidity 93    
Precipitation  
Precipitation 0.00 in 0.07 in 1.12 in (1967)
Month to date precipitation 1.73  
Year to date precipitation 35.89  
Sea Level Pressure  
Sea Level Pressure 29.77 in    
Wind  
Wind Speed 2 mph (ENE)    
Max Wind Speed 13 mph    
Max Gust Speed 20 mph    
Visibility 3 miles    
Events Fog , Rain , Snow    
T = Trace of Precipitation, MM = Missing Value Source: NWS Daily Summary

Daily Weather History Graph

Daily Weather History Graph

Search for Another Location

Airport:

Trip Planner

Search our weather history database for the weather conditions in past years. The results will help you decide how hot, cold, wet, or windy it might be!

Date:

Astronomy

Dec. 21, 2013 Rise Set
Actual Time 8:11 AM EST 5:15 PM EST
Civil Twilight 7:38 AM EST 5:47 PM EST
Nautical Twilight 7:03 AM EST 6:23 PM EST
Astronomical Twilight 6:29 AM EST 6:57 PM EST
Moon 9:36 PM EST (12/21) 10:32 AM EST (12/21)
Length of Visible Light 10h 08m
Length of Day
9h 04m
Waning Gibbous, 84% of the Moon is Illuminated
Dec 21
Waning Gibbous
Dec 25
Last Quarter
Jan 1
New
Jan 7
First Quarter
Jan 15
Full

Hourly Weather History & Observations

Time (EST) Temp. Windchill Dew Point Humidity Pressure Visibility Wind Dir Wind Speed Gust Speed Precip Events Conditions
12:15 AM 33.4 °F - 33.1 °F 99% 29.75 in 0.8 mi Calm Calm - N/A   Overcast
12:35 AM 32.7 °F - 32.4 °F 99% 29.75 in 0.5 mi Calm Calm - N/A Fog Fog
12:55 AM 33.4 °F - 33.3 °F 99% 29.74 in 0.5 mi Calm Calm - N/A Fog Fog
1:15 AM 33.3 °F - 32.9 °F 99% 29.76 in 0.5 mi Calm Calm - N/A Fog Fog
1:35 AM 33.8 °F - 33.3 °F 98% 29.76 in 0.8 mi Calm Calm - N/A   Overcast
1:55 AM 33.8 °F - 33.4 °F 99% 29.75 in 0.5 mi Calm Calm - N/A Fog Fog
2:15 AM 32.9 °F - 32.4 °F 98% 29.76 in 0.5 mi Calm Calm - N/A Fog Fog
2:34 AM 32.9 °F - 32.5 °F 99% 29.76 in 0.5 mi Calm Calm - N/A Fog Fog
2:55 AM 32.9 °F - 32.4 °F 98% 29.75 in 0.5 mi Calm Calm - N/A Fog Fog
3:15 AM 32.7 °F - 32.4 °F 99% 29.77 in 0.5 mi Calm Calm - N/A Fog Fog
3:34 AM 32.9 °F - 32.5 °F 99% 29.78 in 0.5 mi Calm Calm - N/A Fog Fog
3:55 AM 33.1 °F - 32.9 °F 99% 29.77 in 0.5 mi Calm Calm - N/A Fog Fog
4:15 AM 34.3 °F - 34.0 °F 99% 29.79 in 0.5 mi Calm Calm - N/A Fog Fog
4:34 AM 34.0 °F - 33.8 °F 99% 29.80 in 0.5 mi Calm Calm - N/A Fog Fog
4:55 AM 33.3 °F - 32.9 °F 99% 29.79 in 0.2 mi Calm Calm - N/A Fog Fog
5:15 AM 32.9 °F - 32.5 °F 99% 29.76 in 0.2 mi Calm Calm - N/A Fog Fog
5:34 AM 32.9 °F - 32.5 °F 99% 29.78 in 0.2 mi Calm Calm - N/A Fog Fog
5:55 AM 32.9 °F - 32.5 °F 99% 29.78 in 0.2 mi Calm Calm - N/A Fog Fog
6:15 AM 33.1 °F - 32.9 °F 99% 29.79 in 0.2 mi Calm Calm - N/A Fog Fog
6:35 AM 32.9 °F - 32.5 °F 99% 29.78 in 0.2 mi Calm Calm - N/A Fog Fog
6:55 AM 32.9 °F - 32.7 °F 99% 29.80 in 0.2 mi Calm Calm - N/A Fog Fog
7:15 AM 32.9 °F - 32.5 °F 99% 29.81 in 0.2 mi Calm Calm - N/A Fog Fog
7:35 AM 32.9 °F - 32.9 °F 100% 29.82 in 0.2 mi Calm Calm - N/A Fog Fog
7:55 AM 33.6 °F - 33.6 °F 100% 29.83 in 0.2 mi Calm Calm - N/A Fog Fog
8:15 AM 32.9 °F - 32.5 °F 99% 29.82 in 0.5 mi Calm Calm - N/A Fog Fog
8:35 AM 32.9 °F - 32.5 °F 99% 29.82 in 0.2 mi Calm Calm - N/A Fog Fog
8:55 AM 32.9 °F 29.8 °F 32.5 °F 99% 29.81 in 0.2 mi East 3.5 mph - N/A Fog Fog
9:15 AM 32.9 °F - 32.5 °F 99% 29.81 in 0.2 mi Calm Calm - N/A Fog Fog
9:35 AM 32.9 °F 28.5 °F 32.7 °F 99% 29.80 in 0.2 mi NE 4.6 mph - N/A Fog Fog
9:55 AM 32.9 °F 28.5 °F 32.9 °F 100% 29.79 in 0.2 mi ENE 4.6 mph - N/A Fog Fog
10:14 AM 32.9 °F 27.5 °F 32.9 °F 100% 29.80 in 0.2 mi ENE 5.8 mph - N/A Fog Fog
10:35 AM 32.9 °F 27.5 °F 32.9 °F 100% 29.80 in 0.2 mi NE 5.8 mph - N/A Fog Fog
10:55 AM 33.1 °F 30.0 °F 32.9 °F 99% 29.82 in 0.2 mi ENE 3.5 mph - N/A Fog Fog
11:14 AM 33.4 °F 30.4 °F 33.3 °F 99% 29.82 in 0.5 mi East 3.5 mph - N/A Fog Fog
11:35 AM 33.6 °F 30.6 °F 33.3 °F 99% 29.82 in 2.0 mi East 3.5 mph - N/A   Overcast
11:55 AM 33.4 °F - 33.3 °F 99% 29.83 in 3.0 mi Calm Calm - N/A   Overcast
12:14 PM 34.0 °F - 33.8 °F 99% 29.82 in 5.0 mi Calm Calm - N/A   Overcast
12:35 PM 34.0 °F 31.0 °F 33.8 °F 99% 29.80 in 5.0 mi NE 3.5 mph - N/A   Overcast
12:55 PM 34.2 °F 31.2 °F 33.8 °F 99% 29.80 in 5.0 mi ENE 3.5 mph - N/A   Overcast
1:14 PM 34.0 °F 31.0 °F 33.3 °F 97% 29.81 in 5.0 mi ENE 3.5 mph - N/A   Overcast
1:35 PM 34.2 °F 31.2 °F 33.3 °F 97% 29.81 in 5.0 mi ENE 3.5 mph - N/A   Overcast
1:54 PM 34.0 °F 31.0 °F 33.3 °F 97% 29.80 in 5.0 mi NE 3.5 mph - N/A   Overcast
2:15 PM 34.0 °F 29.8 °F 33.3 °F 97% 29.79 in 4.0 mi NE 4.6 mph - N/A Rain Light Rain
2:34 PM 33.8 °F 28.6 °F 33.1 °F 97% 29.80 in 4.0 mi NE 5.8 mph - N/A   Overcast
2:55 PM 33.8 °F 29.6 °F 32.9 °F 96% 29.79 in 2.5 mi NE 4.6 mph - N/A   Overcast
3:15 PM 33.6 °F 28.4 °F 32.9 °F 97% 29.78 in 2.5 mi NE 5.8 mph - N/A   Overcast
3:34 PM 33.4 °F 28.1 °F 32.9 °F 98% 29.78 in 3.0 mi ENE 5.8 mph - N/A Snow Light Snow
3:55 PM 33.4 °F 29.1 °F 32.7 °F 97% 29.77 in 3.0 mi NE 4.6 mph - N/A Snow Light Snow
4:14 PM 32.9 °F 25.9 °F 32.2 °F 97% 29.77 in 3.0 mi East 8.1 mph - N/A   Overcast
4:35 PM 32.5 °F 26.2 °F 32.0 °F 98% 29.76 in 4.0 mi ENE 6.9 mph - N/A   Overcast
4:55 PM 32.4 °F 26.9 °F 32.0 °F 99% 29.77 in 4.0 mi ENE 5.8 mph - N/A   Overcast
5:14 PM 32.2 °F 25.8 °F 32.0 °F 99% 29.77 in 3.0 mi East 6.9 mph - N/A   Overcast
5:35 PM 32.2 °F 26.7 °F 32.0 °F 99% 29.77 in 4.0 mi ENE 5.8 mph - N/A   Overcast
5:55 PM 32.2 °F 26.7 °F 32.0 °F 99% 29.78 in 4.0 mi ENE 5.8 mph - N/A Snow Light Snow
6:14 PM 32.2 °F 26.7 °F 32.0 °F 99% 29.78 in 4.0 mi ENE 5.8 mph - N/A   Overcast
6:35 PM 32.2 °F 25.0 °F 32.0 °F 99% 29.79 in 4.0 mi ENE 8.1 mph - N/A   Overcast
6:55 PM 32.2 °F 25.0 °F 32.0 °F 99% 29.80 in 4.0 mi ENE 8.1 mph - N/A   Overcast
7:14 PM 32.2 °F 25.0 °F 32.0 °F 99% 29.80 in 4.0 mi ENE 8.1 mph - N/A   Overcast
7:35 PM 32.2 °F 25.0 °F 31.8 °F 99% 29.79 in 5.0 mi ENE 8.1 mph - N/A   Overcast
7:55 PM 32.0 °F 24.2 °F 31.8 °F 99% 29.78 in 5.0 mi East 9.2 mph - N/A Snow Light Snow
8:14 PM 32.0 °F 24.8 °F 31.6 °F 99% 29.77 in 5.0 mi ENE 8.1 mph - N/A   Overcast
8:35 PM 32.0 °F 24.2 °F 31.5 °F 98% 29.75 in 5.0 mi ENE 9.2 mph 17.3 mph N/A   Overcast
8:55 PM 32.0 °F 23.0 °F 31.5 °F 98% 29.72 in 5.0 mi ENE 11.5 mph 17.3 mph N/A Snow Light Snow
9:15 PM 32.0 °F 22.5 °F 31.5 °F 98% 29.70 in 7.0 mi ENE 12.7 mph 19.6 mph N/A Snow Light Snow
9:35 PM 32.0 °F 22.5 °F 31.1 °F 96% 29.69 in 7.0 mi ENE 12.7 mph 19.6 mph N/A   Overcast
9:55 PM 32.0 °F 22.5 °F 31.1 °F 96% 29.67 in 7.0 mi ENE 12.7 mph 17.3 mph N/A Snow Light Snow
10:15 PM 32.0 °F 23.0 °F 30.9 °F 96% 29.67 in 7.0 mi ENE 11.5 mph 16.1 mph N/A   Overcast
10:35 PM 32.0 °F 24.8 °F 30.9 °F 96% 29.68 in 7.0 mi East 8.1 mph 16.1 mph N/A   Overcast
10:55 PM 32.0 °F 24.2 °F 30.9 °F 96% 29.65 in 10.0 mi ENE 9.2 mph 18.4 mph N/A   Overcast
11:15 PM 32.0 °F 23.6 °F 30.9 °F 96% 29.66 in 10.0 mi NE 10.4 mph - N/A   Overcast
11:35 PM 32.0 °F 25.6 °F 30.6 °F 94% 29.64 in 10.0 mi ENE 6.9 mph - N/A Snow Light Snow
11:55 PM 32.0 °F 24.2 °F 30.2 °F 93% 29.64 in 10.0 mi ENE 9.2 mph 16.1 mph N/A   Overcast